STARLINK-1126 (44951 NORAD) Tracking and Keplerian Element Data

This shows tracking and keplerian element data for the satellite.

Feedback or suggestion? Click here.




ElementValue
Catalog44951
NameSTARLINK-1126
Epoch Orbit783
Epoch Day48.58334491
Epoch Year2020
RAAN190.463
Inclination52.9957
Eccentricity0.0001524
Argument of Perigee24.3098
Mean Anonmoly273.8668
Mean Motion15.73230094
Decay Rate-0.00012515
L11 44951U 20001AP 20048.58334491 -.00012515 00000-0 -84745-4 0 9995
L22 44951 52.9957 190.4630 0001524 24.3098 273.8668 15.73230094 7835

Live tracking and technical data element details for STARLINK-1126 (NORAD 44951). STARLINK-1126 can be tracked NOW for your location showing map with azimuth and elevation plus other details from your city location.

Track the satellite on the map from your city or location and see movement details for azimuth, elevation, latitude, longitude, range, height, and movement on the map or in text.







IsCatalogInMostPopularTable: catalog: 44951, numindb: 9
Update: records affected: 1



GetName: 44951 STARLINK-1126

Hit Count: updated at: Tue, 18 Feb 2020 01:48:19 GMT